Location: Carter Cabin
(41.0271°N, 122.9339°W)
Time: 15:39:03
(UTC+00:00)

Cosmos 1340 - Pass Details

Date: 13 April 2024
Orbit: 437 x 438 km, 81.2° (Epoch: 21 May)

Event Time Altitude Azimuth Distance (km) Brightness Sun altitude
Rises 13:02:28 0° 332° (NNW) 2,457 6.0 -6.7°
Reaches altitude 10° 13:05:02 10° 312° (NW) 1,582 4.9 -6.2°
Maximum altitude 13:07:21 17° 270° (W) 1,204 4.0 -5.8°
Drops below altitude 10° 13:09:41 10° 227° (SW) 1,577 4.6 -5.4°
Sets 13:12:14 0° 207° (SSW) 2,445 5.7 -4.9°
